{"data":{"norad_id":43246,"intl_designator":"2018-029B","name":"BEIDOU-3 M10 (C30)","alt_names":[],"object_type":"PAYLOAD","status":"ACTIVE","operator":null,"country":"PRC","launch_date":"2018-03-29","launch_site_code":"XICLF","launch_vehicle":null,"mission":null,"orbit_class":"UNKNOWN","rcs_meters":null,"size_class":null,"mass_kg":null,"dimensions":null,"purposes":["nav"],"wikipedia_slug":null,"has_3d_model":false,"image_url":null,"decayed_at":null,"tle_current":{"epoch":"2026-09-18T07:31:26.153760Z","epoch_age_seconds":203396,"freshness":"STALE","line1":"1 43246U 18029B   26261.31349715 -.00000034  00000+0  00000+0 0  9995","line2":"2 43246  54.1047 296.7096 0002780  11.5114 348.5513  1.86229398 57617","mean_motion":1.86229398,"eccentricity":0.000278,"inclination_deg":54.1047,"raan_deg":296.7096,"arg_perigee_deg":11.5114,"mean_anomaly_deg":348.5513,"bstar":0,"rev_number":5761,"period_min":773.23989416537,"perigee_km":21520.4536369,"apogee_km":21535.969566722,"semimajor_km":27906.348601811,"source":"CELESTRAK","updated_at":"2026-09-20T09:00:46.676807Z"}}}